User: anonymous   Login
Location: Newark
(36.1358°N, 115.1208°W)
Time: 12:07:44
(UTC+00:00)
Language:

Vanguard 2 - Orbit

View from above orbital plane
View from above orbital plane
View from above satellite
View from above satellite

Ground track
Ground track

The orbit data is extracted from the following two-line orbital elements,

1    11U 59001A   20058.82461004  .00000221  00000-0  11236-3 0  9998
2    11  32.8709 110.7687 1468769 346.9147   9.6941 11.85675654603587
Epoch (UTC): 27 February 2020 19:47:26
Eccentricity: 0.1468769
inclination: 32.8709°
perigee height: 552 km
apogee height: 2939 km
right ascension of ascending node: 110.7687°
argument of perigee: 346.9147°
revolutions per day: 11.85675654
mean anomaly at epoch: 9.6941°
orbit number at epoch: 60358

The dashed part of the orbit path shows where the satellite is in the earth's shadow,  

DLR